SCP
-0 -0 -0 0 0 0 0 0 0 0 0 0 0 0 0 0 0 0 0 0 0 0 0 0 0 0 0 0 0 0 0 0 0 0 0 0 0 0 0 0 0 0 0 0
0 -0 0 0 0 0 0 0 0 0 0 0 0 0 0 0 0 0 0 0 0 0 0 0 0 0 0 0 0 0 0 0 0 0 0 0 0 0 0 0 0 0 0 0
-0 -0 -0 -0 0 0 0 0 0 0 0 0 0 0 0 0 0 0 0 0 0 0 0 0 0 0 0 0 0 0 0 0 0 0 0 0 0 0 0 0 0 0 0 0
0 0 -0 0 0 0 0 0 0 0 0 0 0 0 0 0 0 0 0 0 0 0 0 0 0 0 0 0 0 0 0 0 0 0 0 0 0 0 0 0 0 0 0 0
0 0 0 0 0 0 0 0 0 0 0 0 0 0 0 0 0 0 0 0 0 0 0 0 0 0 0 0 0 0 0 0 0 0 0 0 0 0 0 0 0 0 0 0
0 0 1 0 0 0 0 0 0 0 0 0 0 0 0 0 0 0 0 0 0 0 0 0 0 0 0 0 0 0 0 0 0 0 0 0 0 0 0 0 0 0 0 0
0 0 0 0 0 0 0 0 0 0 0 0 0 0 0 0 0 0 0 0 0 0 0 0 0 0 0 0 0 0 0 0 0 0 0 0 0 0 0 0 0 0 0 0
0 0 0 -0 0 0 0 0 0 0 0 0 0 0 0 0 0 0 0 0 0 0 0 0 0 0 0 0 0 0 0 0 0 0 0 0 0 0 0 0 0 0 0 0
0 0 0 0 0 0 0 0 0 0 0 0 -0 0 0 0 0 0 0 0 0 0 0 0 0 0 0 0 0 0 0 0 0 0 0 0 0 0 0 0 0 0 0 0
0 0 0 0 0 0 0 0 0 0 0 -0 -0 0 0 0 0 0 0 0 0 0 0 0 0 0 0 0 0 0 0 0 0 0 0 0 0 0 0 0 0 0 0 0
0 0 0 0 0 0 0 0 0 0 0 0 0 0 0 0 0 0 0 0 0 0 0 0 0 0 0 0 0 0 0 0 0 0 0 0 0 0 0 0 0 0 0 0
0 0 0 0 0 0 0 0 0 0 -0 0 0 0 0 0 0 0 0 0 0 0 0 0 0 0 0 0 0 0 0 0 0 0 0 0 0 0 0 0 0 -0 -0 0
0 0 0 0 0 0 0 0 0 0 0 0 0 0 0 0 0 0 0 0 0 0 0 0 0 0 0 0 0 0 0 0 0 0 0 0 0 0 0 0 0 -0 -0 -0
0 0 0 0 0 0 -0 0 0 0 0 0 0 0 0 0 0 0 0 0 0 0 0 0 0 0 0 0 0 0 0 0 0 0 0 0 0 0 0 0 0 0 0 0
-0 0 0 0 0 0 0 -0 0 0 0 0 0 0 0 0 0 0 0 0 0 0 0 0 0 0 0 0 0 0 0 0 0 0 0 0 0 0 0 0 0 0 0 0
0 0 0 0 0 -0 -0 -0 0 0 0 0 0 0 0 0 0 0 0 0 0 0 0 0 0 0 0 0 0 0 0 0 0 0 0 0 0 0 0 0 0 0 0 0
-0 -0 -0 -0 -0 0 0 0 0 0 0 -0 -0 0 0 0 0 0 0 0 0 0 0 0 0 0 0 0 0 0 0 0 0 0 0 0 0 0 0 0 0 0 0 0
0 0 -0 -0 0 0 -0 -0 -0 -0 -0 -0 -0 0 0 0 0 0 0 0 0 0 0 0 0 0 0 0 0 0 0 0 0 0 0 0 0 0 0 0 0 0 0 0
-0 -0 -0 0 0 -0 -0 -0 -0 -0 -0 -0 0 0 0 0 0 0 0 0 0 0 0 0 0 0 0 0 0 0 0 0 0 0 0 0 0 0 0 0 0 0 0 0
-0 -0 -0 -0 -0 -0 -0 -0 -0 0 0 0 0 0 0 0 0 0 0 0 0 0 0 0 0 0 0 0 0 0 0 0 0 0 0 0 0 0 0 0 0 0 0 0
-0 -0 -0 -0 -0 -0 0 0 0 0 0 0 0 0 0 0 0 0 0 0 0 0 0 0 0 0 0 0 0 0 0 0 0 0 0 0 0 0 0 0 0 0 0 0
-0 -0 -0 -0 -0 0 0 0 0 0 0 0 0 0 0 0 0 0 0 0 0 0 0 0 0 0 0 0 0 0 0 0 0 0 0 0 0 0 0 0 0 0 0 0
-0 -0 -0 0 0 0 0 0 0 0 0 0 0 0 0 0 0 0 0 0 0 0 0 0 0 0 0 0 0 0 0 0 0 0 0 0 0 0 0 0 0 0 0 0
-0 0 0 0 0 0 0 0 0 0 0 0 0 0 0 0 0 0 0 0 0 0 0 0 0 0 0 0 0 0 0 0 0 0 0 0 0 0 0 0 0 0 0 0
0 0 0 0 0 0 0 -0 -0 -0 -0 -0 -0 -0 -0 0 0 0 0 0 0 0 0 0 -0 0 0 0 0 0 0 0 0 0 0 0 0 0 0 0 0 0 0 0
0 0 0 0 0 0 -0 -0 -0 -0 -0 -0 0 0 0 0 0 0 0 -0 0 0 0 0 0 0 0 0 0 0 0 0 0 0 0 0 0 0 0 0 0 0 0 0
0 0 0 0 -0 -0 0 0 -0 -0 -0 -0 -0 0 0 0 0 0 0 0 0 0 0 0 0 0 0 0 0 0 0 0 0 0 0 0 0 0 0 0 0 0 0 0
Wind_Speed_500mb
10 25 44 46 54 56 51 27 30 50 43 42 45 36 49 60 63 64 61 60 57 55 51 47 44 41 38 34 30 25 21 18 15 13 11 9 11 12 13 14 14 16 18 19
15 27 47 44 50 51 42 31 15 38 42 44 53 55 53 57 62 63 61 58 54 52 48 43 38 34 31 27 24 20 18 15 12 11 9 11 13 12 13 12 14 14 14 18
17 42 54 50 46 45 22 18 14 25 35 48 42 38 49 57 60 62 59 55 51 45 39 35 31 27 25 22 19 18 15 14 13 12 10 13 12 11 10 14 14 14 18 18
9 33 16 30 38 35 10 26 17 52 41 45 51 56 56 55 61 59 55 50 44 38 34 30 26 23 22 18 17 15 15 14 14 12 11 11 10 11 8 8 15 18 24 21
11 7 19 24 25 29 6 29 44 56 45 54 63 63 47 50 50 51 48 44 39 33 30 27 24 21 19 17 15 15 15 14 14 12 10 10 10 8 6 7 12 17 23 22
10 8 8 9 32 30 14 23 42 57 48 52 68 34 24 48 46 43 38 34 34 29 27 26 24 20 18 15 15 15 15 15 16 13 11 9 9 8 6 7 12 15 16 21
19 12 10 21 39 26 7 16 57 64 71 61 22 37 59 49 41 35 32 30 29 29 26 23 22 20 19 15 17 15 14 14 13 12 17 12 7 8 5 10 10 14 15 12
9 11 11 49 13 9 4 59 59 58 51 51 71 72 59 48 42 37 32 30 25 25 24 22 22 19 17 18 16 14 14 13 13 10 8 5 5 5 8 8 9 13 19 16
13 8 19 36 20 24 36 54 54 54 56 64 67 63 55 48 39 33 30 27 24 23 24 21 21 19 15 16 15 15 13 12 8 7 7 5 8 4 6 9 8 10 16 21
4 16 24 45 56 57 52 55 54 51 56 60 63 53 50 40 34 33 31 29 23 21 22 21 20 19 16 15 15 14 14 13 12 10 13 1 7 7 5 8 9 12 14 21
9 7 21 46 43 44 56 60 62 60 54 55 57 48 45 41 36 32 29 24 22 23 23 22 17 16 17 17 16 15 13 13 12 8 2 11 10 8 8 8 14 13 16 17
6 18 27 19 33 38 56 60 59 69 59 49 50 51 45 41 35 30 28 24 25 24 21 18 16 15 18 18 15 16 11 10 12 10 3 9 9 15 9 17 20 23 23 23
13 52 58 53 51 50 63 57 56 57 56 55 49 45 43 39 32 30 28 26 23 21 19 18 17 18 17 18 17 15 16 15 13 11 9 4 7 3 6 20 19 27 33 33
45 45 45 39 47 54 57 60 55 51 46 46 44 41 38 36 31 30 28 23 21 19 17 15 15 15 15 16 18 18 17 19 19 17 14 12 6 4 7 8 10 13 25 32
46 46 47 45 45 43 43 45 47 45 44 42 36 35 33 36 34 27 23 20 19 18 17 16 16 16 15 15 16 19 18 18 20 20 17 15 13 14 13 13 14 17 22 24
33 37 39 40 39 39 39 38 40 37 35 36 34 33 31 30 29 26 22 19 19 19 18 18 17 17 16 15 13 14 21 21 23 18 18 17 18 19 21 21 21 20 20 33
34 34 34 38 36 34 33 31 32 32 32 32 32 30 30 29 29 26 23 20 19 19 17 17 17 16 18 18 18 17 16 17 25 17 17 16 17 19 19 20 21 22 21 33
29 31 30 32 33 34 33 31 30 29 29 30 28 27 35 35 31 24 22 20 20 21 22 19 18 21 17 18 22 17 15 15 16 18 16 18 18 17 18 19 21 21 20 24
29 30 29 29 29 30 31 30 29 29 28 26 29 37 38 35 23 21 19 18 17 18 20 21 31 24 23 25 28 16 18 19 19 17 18 19 19 19 21 19 20 21 21 22
30 30 30 29 26 26 29 28 27 27 27 27 25 30 30 29 21 21 21 21 18 17 15 19 19 18 20 23 29 17 17 18 17 17 23 21 19 20 20 23 21 20 20 22
28 27 27 27 27 26 25 26 27 26 24 24 29 33 33 23 17 13 14 15 16 20 24 20 17 15 16 22 20 16 17 17 18 20 19 18 18 20 20 19 21 22 21 22
24 25 25 23 24 25 24 24 26 26 25 26 25 31 32 24 18 17 19 19 13 24 11 10 14 15 21 24 16 17 17 18 18 18 18 19 18 18 17 19 20 20 21 21
23 22 21 21 21 23 24 23 24 24 24 23 21 17 18 17 12 11 14 12 9 17 10 9 11 11 18 16 15 16 14 16 15 16 17 16 17 18 18 22 21 20 20 23
23 22 23 24 23 22 23 23 23 21 21 19 16 13 12 14 10 8 9 11 14 11 5 9 10 10 21 12 12 11 13 14 13 14 15 18 16 17 20 19 20 22 21 23
23 24 23 21 20 20 21 23 22 21 20 17 14 10 6 8 4 7 7 7 12 16 7 10 12 15 15 9 10 12 12 15 18 17 16 15 16 18 18 20 21 23 23 23
24 20 19 14 16 17 17 18 17 18 18 15 13 12 10 5 7 9 6 11 0 9 5 6 3 7 7 6 7 8 11 15 14 18 17 20 19 17 18 21 22 22 22 24
19 19 17 16 15 14 15 16 18 17 16 14 13 12 12 10 12 9 8 5 5 4 3 4 5 5 2 4 7 8 10 11 20 22 17 20 22 25 22 22 25 25 25 25
Wind_Direction_500mb
92 222 195 198 201 194 216 213 217 139 147 145 135 135 135 136 135 133 130 126 122 119 116 114 110 106 102 97 96 95 92 84 73 58 43 23 8 1 3 5 360 357 349 343
200 256 233 197 211 186 191 209 75 161 134 140 130 136 139 141 138 131 128 123 120 116 113 109 105 100 95 90 85 85 80 69 57 52 27 14 17 14 14 10 360 13 339 316
195 211 182 196 196 192 121 224 147 169 133 133 133 137 144 142 137 129 124 122 118 115 110 103 97 92 86 82 79 75 70 58 47 40 17 13 18 24 6 23 358 3 334 335
112 105 169 196 141 212 140 25 124 118 130 130 129 137 142 135 128 125 123 120 115 110 103 94 90 85 80 75 74 71 62 49 37 24 13 14 21 22 33 25 4 4 340 336
139 125 124 61 133 166 44 95 120 121 126 124 125 115 103 116 122 122 118 114 111 107 100 91 82 76 75 72 70 63 49 34 26 18 19 24 36 22 4 39 6 358 332 333
114 126 102 345 350 9 120 100 126 129 133 132 133 114 119 120 121 118 114 110 106 99 92 81 69 70 73 67 60 47 35 27 35 32 28 43 37 17 356 36 9 358 345 337
112 81 98 346 322 292 80 116 139 139 140 150 134 129 132 129 122 115 109 108 104 95 82 73 68 66 63 53 41 28 25 31 26 26 49 12 7 344 353 18 14 5 355 10
19 99 76 344 358 25 257 131 131 133 141 112 119 128 130 126 120 113 110 98 87 85 80 73 69 65 58 43 26 23 26 27 20 20 19 336 358 339 16 25 360 3 355 7
32 63 345 342 1 93 113 118 133 127 122 124 126 127 125 122 120 113 101 96 88 80 77 67 61 63 55 32 19 22 28 25 5 35 28 13 355 27 19 9 15 360 352 353
178 18 18 25 47 74 88 97 111 117 122 124 123 124 121 120 112 104 95 90 91 90 82 73 62 51 44 28 23 25 23 16 3 20 92 93 114 68 3 3 16 1 3 351
77 101 61 33 51 71 80 91 100 105 112 119 121 118 115 111 107 105 103 101 99 92 81 71 60 49 40 30 33 38 26 19 14 17 173 60 301 213 60 338 349 359 351 4
69 48 93 59 78 89 95 97 102 113 106 108 112 111 111 107 107 107 106 103 91 87 83 75 62 45 40 31 35 49 32 27 20 39 19 176 97 334 284 323 324 321 327 338
91 98 97 98 101 99 96 99 101 102 105 109 104 105 104 102 103 104 97 94 91 84 75 68 62 47 33 39 31 42 42 37 40 49 55 120 116 73 339 327 346 347 336 334
92 93 82 91 97 94 96 99 98 100 104 100 101 100 104 105 101 93 86 85 84 81 78 72 65 55 39 42 35 34 40 48 49 48 51 46 34 51 27 11 355 350 335 343
82 85 91 99 99 99 100 104 102 99 98 97 99 102 106 105 95 92 90 90 88 79 73 67 58 50 41 43 38 45 37 45 43 38 44 55 40 36 32 30 22 19 6 9
100 105 100 100 102 103 103 102 100 99 99 101 102 101 100 99 98 93 90 93 91 77 67 61 55 48 44 46 53 32 23 47 58 38 35 35 35 39 38 34 30 26 18 14
110 109 110 109 107 105 103 106 107 110 109 109 108 112 109 102 97 92 87 82 79 76 71 65 56 52 49 50 49 46 43 29 50 44 42 41 35 36 34 34 32 26 16 14
96 102 107 109 110 109 107 107 108 111 114 117 116 118 128 119 100 94 90 88 81 72 59 61 68 51 57 59 56 47 49 50 50 47 46 41 46 42 42 35 35 30 24 9
99 103 104 105 108 110 110 109 110 111 113 120 122 116 109 93 94 95 94 93 86 73 56 52 53 52 53 82 78 50 51 50 49 52 47 50 42 40 41 41 34 32 27 23
105 107 109 108 109 111 111 112 114 113 112 111 118 122 118 110 105 101 93 85 77 79 64 60 52 53 53 66 65 44 49 51 55 42 49 40 44 38 35 32 35 31 28 27
108 109 109 109 110 112 114 117 119 120 126 128 127 117 103 100 103 106 99 93 76 66 52 40 83 59 50 72 54 50 50 47 46 42 45 42 31 31 33 27 23 22 21 25
110 109 109 112 114 113 116 120 122 122 125 122 121 121 120 113 108 105 96 80 80 87 74 55 63 68 77 59 42 56 45 45 36 40 38 33 25 25 24 17 19 11 11 16
114 112 114 113 116 115 118 122 128 128 126 127 123 121 116 112 108 122 114 98 85 88 54 57 71 71 63 52 42 31 41 47 36 38 27 30 22 13 13 9 7 5 7 6
119 119 119 119 120 121 124 131 132 129 129 124 121 124 123 112 115 134 114 101 112 91 65 51 61 64 73 28 37 42 30 20 33 30 26 16 13 11 7 5 359 359 3 1
131 128 127 124 124 127 129 134 137 137 133 139 130 112 118 126 170 150 106 99 93 86 329 33 55 55 55 37 27 13 21 10 12 15 9 8 7 3 358 354 351 351 354 349
139 136 136 135 128 131 136 140 145 149 151 141 136 138 145 132 139 112 155 147 79 103 80 12 32 45 27 36 16 12 10 352 8 350 2 346 349 351 347 345 342 342 341 338
153 150 144 140 140 139 149 153 151 154 150 157 160 159 161 164 165 163 157 130 129 124 108 80 21 21 22 49 342 2 351 346 334 346 349 333 334 333 338 333 333 332 328 326
Wind_Speed_850mb
10 25 44 46 54 56 51 27 30 50 43 42 45 36 49 60 63 64 61 60 57 55 51 47 44 41 38 34 30 25 21 18 15 13 11 9 11 12 13 14 14 16 18 19
15 27 47 44 50 51 42 31 15 38 42 44 53 55 53 57 62 63 61 58 54 52 48 43 38 34 31 27 24 20 18 15 12 11 9 11 13 12 13 12 14 14 14 18
17 42 54 50 46 45 22 18 14 25 35 48 42 38 49 57 60 62 59 55 51 45 39 35 31 27 25 22 19 18 15 14 13 12 10 13 12 11 10 14 14 14 18 18
9 33 16 30 38 35 10 26 17 52 41 45 51 56 56 55 61 59 55 50 44 38 34 30 26 23 22 18 17 15 15 14 14 12 11 11 10 11 8 8 15 18 24 21
11 7 19 24 25 29 6 29 44 56 45 54 63 63 47 50 50 51 48 44 39 33 30 27 24 21 19 17 15 15 15 14 14 12 10 10 10 8 6 7 12 17 23 22
10 8 8 9 32 30 14 23 42 57 48 52 68 34 24 48 46 43 38 34 34 29 27 26 24 20 18 15 15 15 15 15 16 13 11 9 9 8 6 7 12 15 16 21
19 12 10 21 39 26 7 16 57 64 71 61 22 37 59 49 41 35 32 30 29 29 26 23 22 20 19 15 17 15 14 14 13 12 17 12 7 8 5 10 10 14 15 12
9 11 11 49 13 9 4 59 59 58 51 51 71 72 59 48 42 37 32 30 25 25 24 22 22 19 17 18 16 14 14 13 13 10 8 5 5 5 8 8 9 13 19 16
13 8 19 36 20 24 36 54 54 54 56 64 67 63 55 48 39 33 30 27 24 23 24 21 21 19 15 16 15 15 13 12 8 7 7 5 8 4 6 9 8 10 16 21
4 16 24 45 56 57 52 55 54 51 56 60 63 53 50 40 34 33 31 29 23 21 22 21 20 19 16 15 15 14 14 13 12 10 13 1 7 7 5 8 9 12 14 21
9 7 21 46 43 44 56 60 62 60 54 55 57 48 45 41 36 32 29 24 22 23 23 22 17 16 17 17 16 15 13 13 12 8 2 11 10 8 8 8 14 13 16 17
6 18 27 19 33 38 56 60 59 69 59 49 50 51 45 41 35 30 28 24 25 24 21 18 16 15 18 18 15 16 11 10 12 10 3 9 9 15 9 17 20 23 23 23
13 52 58 53 51 50 63 57 56 57 56 55 49 45 43 39 32 30 28 26 23 21 19 18 17 18 17 18 17 15 16 15 13 11 9 4 7 3 6 20 19 27 33 33
45 45 45 39 47 54 57 60 55 51 46 46 44 41 38 36 31 30 28 23 21 19 17 15 15 15 15 16 18 18 17 19 19 17 14 12 6 4 7 8 10 13 25 32
46 46 47 45 45 43 43 45 47 45 44 42 36 35 33 36 34 27 23 20 19 18 17 16 16 16 15 15 16 19 18 18 20 20 17 15 13 14 13 13 14 17 22 24
33 37 39 40 39 39 39 38 40 37 35 36 34 33 31 30 29 26 22 19 19 19 18 18 17 17 16 15 13 14 21 21 23 18 18 17 18 19 21 21 21 20 20 33
34 34 34 38 36 34 33 31 32 32 32 32 32 30 30 29 29 26 23 20 19 19 17 17 17 16 18 18 18 17 16 17 25 17 17 16 17 19 19 20 21 22 21 33
29 31 30 32 33 34 33 31 30 29 29 30 28 27 35 35 31 24 22 20 20 21 22 19 18 21 17 18 22 17 15 15 16 18 16 18 18 17 18 19 21 21 20 24
29 30 29 29 29 30 31 30 29 29 28 26 29 37 38 35 23 21 19 18 17 18 20 21 31 24 23 25 28 16 18 19 19 17 18 19 19 19 21 19 20 21 21 22
30 30 30 29 26 26 29 28 27 27 27 27 25 30 30 29 21 21 21 21 18 17 15 19 19 18 20 23 29 17 17 18 17 17 23 21 19 20 20 23 21 20 20 22
28 27 27 27 27 26 25 26 27 26 24 24 29 33 33 23 17 13 14 15 16 20 24 20 17 15 16 22 20 16 17 17 18 20 19 18 18 20 20 19 21 22 21 22
24 25 25 23 24 25 24 24 26 26 25 26 25 31 32 24 18 17 19 19 13 24 11 10 14 15 21 24 16 17 17 18 18 18 18 19 18 18 17 19 20 20 21 21
23 22 21 21 21 23 24 23 24 24 24 23 21 17 18 17 12 11 14 12 9 17 10 9 11 11 18 16 15 16 14 16 15 16 17 16 17 18 18 22 21 20 20 23
23 22 23 24 23 22 23 23 23 21 21 19 16 13 12 14 10 8 9 11 14 11 5 9 10 10 21 12 12 11 13 14 13 14 15 18 16 17 20 19 20 22 21 23
23 24 23 21 20 20 21 23 22 21 20 17 14 10 6 8 4 7 7 7 12 16 7 10 12 15 15 9 10 12 12 15 18 17 16 15 16 18 18 20 21 23 23 23
24 20 19 14 16 17 17 18 17 18 18 15 13 12 10 5 7 9 6 11 0 9 5 6 3 7 7 6 7 8 11 15 14 18 17 20 19 17 18 21 22 22 22 24
19 19 17 16 15 14 15 16 18 17 16 14 13 12 12 10 12 9 8 5 5 4 3 4 5 5 2 4 7 8 10 11 20 22 17 20 22 25 22 22 25 25 25 25
Wind_Direction_850mb
92 222 195 198 201 194 216 213 217 139 147 145 135 135 135 136 135 133 130 126 122 119 116 114 110 106 102 97 96 95 92 84 73 58 43 23 8 1 3 5 360 357 349 343
200 256 233 197 211 186 191 209 75 161 134 140 130 136 139 141 138 131 128 123 120 116 113 109 105 100 95 90 85 85 80 69 57 52 27 14 17 14 14 10 360 13 339 316
195 211 182 196 196 192 121 224 147 169 133 133 133 137 144 142 137 129 124 122 118 115 110 103 97 92 86 82 79 75 70 58 47 40 17 13 18 24 6 23 358 3 334 335
112 105 169 196 141 212 140 25 124 118 130 130 129 137 142 135 128 125 123 120 115 110 103 94 90 85 80 75 74 71 62 49 37 24 13 14 21 22 33 25 4 4 340 336
139 125 124 61 133 166 44 95 120 121 126 124 125 115 103 116 122 122 118 114 111 107 100 91 82 76 75 72 70 63 49 34 26 18 19 24 36 22 4 39 6 358 332 333
114 126 102 345 350 9 120 100 126 129 133 132 133 114 119 120 121 118 114 110 106 99 92 81 69 70 73 67 60 47 35 27 35 32 28 43 37 17 356 36 9 358 345 337
112 81 98 346 322 292 80 116 139 139 140 150 134 129 132 129 122 115 109 108 104 95 82 73 68 66 63 53 41 28 25 31 26 26 49 12 7 344 353 18 14 5 355 10
19 99 76 344 358 25 257 131 131 133 141 112 119 128 130 126 120 113 110 98 87 85 80 73 69 65 58 43 26 23 26 27 20 20 19 336 358 339 16 25 360 3 355 7
32 63 345 342 1 93 113 118 133 127 122 124 126 127 125 122 120 113 101 96 88 80 77 67 61 63 55 32 19 22 28 25 5 35 28 13 355 27 19 9 15 360 352 353
178 18 18 25 47 74 88 97 111 117 122 124 123 124 121 120 112 104 95 90 91 90 82 73 62 51 44 28 23 25 23 16 3 20 92 93 114 68 3 3 16 1 3 351
77 101 61 33 51 71 80 91 100 105 112 119 121 118 115 111 107 105 103 101 99 92 81 71 60 49 40 30 33 38 26 19 14 17 173 60 301 213 60 338 349 359 351 4
69 48 93 59 78 89 95 97 102 113 106 108 112 111 111 107 107 107 106 103 91 87 83 75 62 45 40 31 35 49 32 27 20 39 19 176 97 334 284 323 324 321 327 338
91 98 97 98 101 99 96 99 101 102 105 109 104 105 104 102 103 104 97 94 91 84 75 68 62 47 33 39 31 42 42 37 40 49 55 120 116 73 339 327 346 347 336 334
92 93 82 91 97 94 96 99 98 100 104 100 101 100 104 105 101 93 86 85 84 81 78 72 65 55 39 42 35 34 40 48 49 48 51 46 34 51 27 11 355 350 335 343
82 85 91 99 99 99 100 104 102 99 98 97 99 102 106 105 95 92 90 90 88 79 73 67 58 50 41 43 38 45 37 45 43 38 44 55 40 36 32 30 22 19 6 9
100 105 100 100 102 103 103 102 100 99 99 101 102 101 100 99 98 93 90 93 91 77 67 61 55 48 44 46 53 32 23 47 58 38 35 35 35 39 38 34 30 26 18 14
110 109 110 109 107 105 103 106 107 110 109 109 108 112 109 102 97 92 87 82 79 76 71 65 56 52 49 50 49 46 43 29 50 44 42 41 35 36 34 34 32 26 16 14
96 102 107 109 110 109 107 107 108 111 114 117 116 118 128 119 100 94 90 88 81 72 59 61 68 51 57 59 56 47 49 50 50 47 46 41 46 42 42 35 35 30 24 9
99 103 104 105 108 110 110 109 110 111 113 120 122 116 109 93 94 95 94 93 86 73 56 52 53 52 53 82 78 50 51 50 49 52 47 50 42 40 41 41 34 32 27 23
105 107 109 108 109 111 111 112 114 113 112 111 118 122 118 110 105 101 93 85 77 79 64 60 52 53 53 66 65 44 49 51 55 42 49 40 44 38 35 32 35 31 28 27
108 109 109 109 110 112 114 117 119 120 126 128 127 117 103 100 103 106 99 93 76 66 52 40 83 59 50 72 54 50 50 47 46 42 45 42 31 31 33 27 23 22 21 25
110 109 109 112 114 113 116 120 122 122 125 122 121 121 120 113 108 105 96 80 80 87 74 55 63 68 77 59 42 56 45 45 36 40 38 33 25 25 24 17 19 11 11 16
114 112 114 113 116 115 118 122 128 128 126 127 123 121 116 112 108 122 114 98 85 88 54 57 71 71 63 52 42 31 41 47 36 38 27 30 22 13 13 9 7 5 7 6
119 119 119 119 120 121 124 131 132 129 129 124 121 124 123 112 115 134 114 101 112 91 65 51 61 64 73 28 37 42 30 20 33 30 26 16 13 11 7 5 359 359 3 1
131 128 127 124 124 127 129 134 137 137 133 139 130 112 118 126 170 150 106 99 93 86 329 33 55 55 55 37 27 13 21 10 12 15 9 8 7 3 358 354 351 351 354 349
139 136 136 135 128 131 136 140 145 149 151 141 136 138 145 132 139 112 155 147 79 103 80 12 32 45 27 36 16 12 10 352 8 350 2 346 349 351 347 345 342 342 341 338
153 150 144 140 140 139 149 153 151 154 150 157 160 159 161 164 165 163 157 130 129 124 108 80 21 21 22 49 342 2 351 346 334 346 349 333 334 333 338 333 333 332 328 326